Regional Weather Roundup
Issued by NWS

Home | Current Version | Previous Version | Graphics & Text | Print | Product List | Glossary On
Versions: 1 2 3 4 5 6 7 8 9 10 11 12 13 14 15 16 17 18 19 20 21 22 23 24 25 26 27 28 29 30 31 32 33 34 35 36 37 38 39 40 41 42 43 44 45 46 47 48 49 50
000
ASUS43 KLSX 182307
RWRMO

WEATHER SUMMARY FOR MISSOURI
NATIONAL WEATHER SERVICE SPRINGFIELD MO
600 PM CDT THU SEP 18 2014

NOTE: "FAIR" INDICATES FEW OR NO CLOUDS BELOW 12,000 FEET WITH NO
       SIGNIFICANT WEATHER AND/OR OBSTRUCTIONS TO VISIBILITY.
       CURRENT SKY AND/OR WEATHER CONDITIONS ARE NOT AVAILABLE FOR
       CHILLICOTHE AND FARMINGTON.

MOZ001>031-035>038-043-044-053-054-190000-
...NORTHERN AND WESTERN MISSOURI...

CITY           SKY/WX    TMP DP  RH WIND       PRES   REMARKS
KANSAS CTY INT CLOUDY    66  61  84 E9        30.01S
KANSAS C DTWN  CLOUDY    67  62  84 E7        30.00S
LEE`S SUMMIT   CLOUDY    67  62  84 E7        30.01S
ST JOSEPH      CLOUDY    67  60  78 SE6       30.00S
CHILLICOTHE      N/A     71  60  68 SE3       30.01F
KIRKSVILLE     SUNNY     70  56  61 E10       30.03F

$$
MOZ066>068-077>081-088>096-101>105-190000-
...SOUTHWEST MISSOURI...

CITY           SKY/WX    TMP DP  RH WIND       PRES   REMARKS
SPRINGFIELD    CLOUDY    72  62  71 SE9       29.98S
JOPLIN         SUNNY     74  63  68 SE12      29.94F

$$
MOZ032>034-039>042-045>050-055>058-069>072-190000-
...CENTRAL MISSOURI...

CITY           SKY/WX    TMP DP  RH WIND       PRES   REMARKS
COLUMBIA       MOSUNNY   71  59  65 E12       30.01S
JEFFERSON CITY SUNNY     73  58  59 E5        29.99S
ROLLA          HAZE      68  62  81 SW5       30.00S VSB 1
SEDALIA        CLOUDY    70  62  76 SE7       30.01S
WHITEMAN AFB   PTSUNNY   69  63  80 E5        30.00S
OSAGE BEACH    PTSUNNY   70  61  73 S3        30.01S

$$
MOZ051-052-059>065-190000-
...EAST CENTRAL MISSOURI...

CITY           SKY/WX    TMP DP  RH WIND       PRES   REMARKS
ST LOUIS INTL  MOSUNNY   73  52  47 E10       30.02S
SPIRIT OF STL  MOSUNNY   71  56  58 E5        30.00S
ST CHARLES     SUNNY     73  52  47 E10       30.01S

$$
MOZ072>076-082>087-097>100-106>115-190000-
...SOUTH CENTRAL AND SOUTHEAST MISSOURI...

CITY           SKY/WX    TMP DP  RH WIND       PRES   REMARKS
CAPE GIRARDEAU CLOUDY    72  60  66 E5        29.99R
FARMINGTON     PTSUNNY   70  57  64 E5        30.03S
POPLAR BLUFF   PTSUNNY   73  59  61 NE6       29.97R
WEST PLAINS    CLOUDY    67  61  81 NE7       30.02S

$$



USA.gov is the U.S. government's official web portal to all federal, state and local government web resources and services.